Regional Weather Roundup
Issued by NWS Burlington, VT

Home | Current Version | Previous Version | Text Only | Print | Product List | Glossary On
Versions: 1 2 3 4 5 6 7 8 9 10 11 12 13 14 15 16 17 18 19 20 21 22 23 24 25 26 27 28 29 30 31 32 33 34 35 36 37 38 39 40 41 42 43 44 45 46 47 48 49 50
000
ASUS41 KBTV 260910
RWRBTV
VERMONT REGIONAL WEATHER ROUNDUP
NATIONAL WEATHER SERVICE BURLINGTON VT
500 AM EDT THU MAY 26 2016

NOTE: "FAIR" INDICATES FEW OR NO CLOUDS BELOW 12,000 FEET WITH NO
SIGNIFICANT WEATHER AND/OR OBSTRUCTIONS TO VISIBILITY.

* THESE REPORTS ARE NOT UNDER NWS QUALITY CONTROL AND/OR DO NOT
  REPORT WEATHER SUCH AS PRECIPITATION AND FOG.

VTZ001>019-261000-
_____VERMONT_____


CITY           SKY/WX    TMP DP  RH WIND       PRES   REMARKS
BURLINGTON     FAIR      56  51  84 CALM      30.10R
MONTPELIER     FAIR      53  51  93 CALM      30.14R
MORRISVILLE    FAIR      49  47  93 CALM      30.13R FOG
ST. JOHNSBURY*   N/A     52  49  89 MISG      30.09R
LYNDONVILLE*   FAIR      50  49  96 CALM      30.12R
MIDDLEBURY*    FAIR      55  55 100 CALM      30.10R
RUTLAND*       FAIR      53  51  93 SE3       30.12R
SPRINGFIELD    FAIR      53  51  93 CALM      30.10R
HIGHGATE*      FAIR      54  50  86 CALM      30.10R
NEWPORT*       FAIR      52  48  86 NW5       30.12R
BENNINGTON     FAIR      52  51  97 CALM      30.09R FOG
SUTTON*          N/A     52 N/A N/A MISG        N/A

_____LAKE CHAMPLAIN_____


CITY           SKY/WX    TMP DP  RH WIND       PRES   REMARKS
COLCHESTER RF*   N/A     61  55  82 NW7         N/A
DIAMOND ISL*     N/A     64  52  63 NW14        N/A

$$

NYZ007-026>031-035-052-083-087-261000-
_____NORTHERN NEW YORK_____


CITY           SKY/WX    TMP DP  RH WIND       PRES   REMARKS
PLATTSBURGH    CLOUDY    54  50  86 CALM      30.11R
SARANAC LAKE   CLOUDY    46  44  93 CALM      30.10S FOG
MASSENA        MOCLDY    53  50  89 N3        30.11R
OGDENSBURG*    CLEAR     54  52  94 CALM      30.09S
POTSDAM*       CLEAR     54  54 100 CALM      30.10R
WATERTOWN      CLEAR     52  50  93 CALM      30.07R
FT DRUM        CLOUDY    57  53  86 E7        30.07R
ALBANY         PTCLDY    59  54  83 N3        30.08R
GLENS FALLS    CLOUDY    53  51  93 CALM      30.09R

$$
NHZ002-005-011-261000-
_____NEW HAMPSHIRE_____


CITY           SKY/WX    TMP DP  RH WIND       PRES   REMARKS
LEBANON        MOCLDY    55  52  89 CALM      30.09R
KEENE          PTCLDY    54  52  94 CALM      30.10R
MT WASHINGTON  FOG       41  41 100 W44         N/A  VSB 1/16WCI  28
PLYMOUTH       FAIR      52  51  97 CALM      30.07R FOG
WHITEFIELD     CLOUDY    45  42  89 CALM      30.11R FOG

$$

_____REGIONAL QUEBEC LOCATIONS_____


CITY           SKY/WX    TMP DP  RH WIND       PRES   REMARKS
MONTREAL       MOCLDY    54  45  71 NE7       30.12R
QUEBEC CITY    PTCLDY    50  45  81 N6        30.07S
SHERBROOKE     CLEAR     46  46 100 W5        30.09S FOG

_____REGIONAL ONTARIO LOCATIONS_____


CITY           SKY/WX    TMP DP  RH WIND       PRES   REMARKS
OTTAWA         MOCLDY    54  50  87 NE8       30.11R

______KEY______
VSB  - VISIBILITY IN MILES
WCI  - WIND CHILL INDEX
HX   - HEAT INDEX
$$
NNNN




USA.gov is the U.S. government's official web portal to all federal, state and local government web resources and services.